This is the latest recevied weather packets stored in our database for station/object N6GPM. If no packets are shown the sender has not sent any weather packets the latest 10 day(s).
| Time | Temp. | Humidity | Pressure | Rain* | Wind** | Luminosity | Snow |
|---|---|---|---|---|---|---|---|
| 1787959028 | 36.67° C | 25% | 1015.5 hPa | 0 mm | - | 556 W/m² | - |
| 1787958723 | 36.67° C | 26% | 1015.3 hPa | 0 mm | - | 568 W/m² | - |
| 1787958418 | 36.67° C | 25% | 1015.4 hPa | 0 mm | - | 586 W/m² | - |
| 1787958115 | 36.67° C | 26% | 1015.5 hPa | 0 mm | - | 605 W/m² | - |
| 1787957813 | 36.67° C | 26% | 1015.5 hPa | 0 mm | - | 623 W/m² | - |
| 1787957508 | 36.67° C | 25% | 1015.5 hPa | 0 mm | - | 638 W/m² | - |
| 1787957203 | 37.22° C | 26% | 1015.5 hPa | 0 mm | - | 657 W/m² | - |
| 1787956898 | 37.78° C | 25% | 1015.4 hPa | 0 mm | - | 676 W/m² | - |
| 1787956597 | 37.22° C | 25% | 1015.4 hPa | 0 mm | - | 690 W/m² | - |
| 1787956291 | 37.22° C | 25% | 1015.6 hPa | 0 mm | - | 710 W/m² | - |
| 1787955987 | 37.78° C | 24% | 1015.6 hPa | 0 mm | - | 723 W/m² | - |
| 1787955683 | 37.78° C | 24% | 1015.8 hPa | 0 mm | - | 740 W/m² | - |
| 1787955378 | 37.78° C | 23% | 1015.7 hPa | 0 mm | - | 754 W/m² | - |
| 1787955076 | 37.78° C | 24% | 1015.9 hPa | 0 mm | - | 770 W/m² | - |
| 1787954773 | 37.78° C | 25% | 1015.9 hPa | 0 mm | - | 780 W/m² | - |
| 1787954469 | 37.78° C | 24% | 1016 hPa | 0 mm | - | 793 W/m² | - |
| 1787954168 | 37.78° C | 25% | 1016.2 hPa | 0 mm | - | 806 W/m² | - |
| 1787953862 | 37.78° C | 25% | 1016.1 hPa | 0 mm | - | 821 W/m² | - |
| 1787953557 | 37.78° C | 25% | 1016.3 hPa | 0 mm | - | 842 W/m² | - |
| 1787953256 | 37.78° C | 27% | 1016 hPa | 0 mm | - | 849 W/m² | - |
| 1787952954 | 37.78° C | 26% | 1016.3 hPa | 0 mm | - | 858 W/m² | - |
| 1787952649 | 38.33° C | 26% | 1016.2 hPa | 0 mm | - | 830 W/m² | - |
| 1787952348 | 37.78° C | 28% | 1016.3 hPa | 0 mm | - | 883 W/m² | - |
| 1787952045 | 37.78° C | 29% | 1016.4 hPa | 0 mm | - | 897 W/m² | - |
| 1787951744 | 37.22° C | 29% | 1016.6 hPa | 0 mm | - | 909 W/m² | - |
* Rain latest hour (hover to see other rain measurements)
** Current wind speed in m/s (hover to see current wind gust speed)